This is the latest recevied weather packets stored in our database for station/object K5NWZ. If no packets are shown the sender has not sent any weather packets the latest 10 day(s).
| Time | Temp. | Humidity | Pressure | Rain* | Wind** | Luminosity | Snow |
|---|---|---|---|---|---|---|---|
| 1788018527 | 26.67° C | 43% | 1027.9 hPa | 0 mm | - | 372 W/m² | - |
| 1788018225 | 26.11° C | 46% | 1027.6 hPa | 0 mm | - | 337 W/m² | - |
| 1788017922 | 26.11° C | 43% | 1027.9 hPa | 0 mm | - | 261 W/m² | - |
| 1788017618 | 25.56° C | 48% | 1027.7 hPa | 0 mm | - | 244 W/m² | - |
| 1788017314 | 25.56° C | 46% | 1027.5 hPa | 0 mm | - | 233 W/m² | - |
| 1788017011 | 25° C | 45% | 1027.6 hPa | 0 mm | - | 217 W/m² | - |
| 1788016710 | 25° C | 46% | 1027.7 hPa | 0 mm | - | 196 W/m² | - |
| 1788016407 | 25° C | 45% | 1027.7 hPa | 0 mm | - | 200 W/m² | - |
| 1788016102 | 25° C | 47% | 1027.4 hPa | 0 mm | - | 226 W/m² | - |
| 1788015801 | 24.44° C | 46% | 1027.5 hPa | 0 mm | - | 290 W/m² | - |
| 1788015496 | 23.89° C | 50% | 1027.4 hPa | 0 mm | - | 238 W/m² | - |
| 1788015191 | 23.89° C | 50% | 1027.5 hPa | 0 mm | - | 244 W/m² | - |
| 1788014889 | 23.89° C | 52% | 1027.4 hPa | 0 mm | - | 222 W/m² | - |
| 1788014584 | 23.33° C | 52% | 1027.5 hPa | 0 mm | - | 224 W/m² | - |
| 1788014280 | 22.78° C | 53% | 1027.7 hPa | 0 mm | - | 180 W/m² | - |
| 1788013975 | 22.78° C | 54% | 1027.7 hPa | 0 mm | - | 125 W/m² | - |
| 1788013669 | 22.22° C | 53% | 1027.7 hPa | 0 mm | - | 110 W/m² | - |
| 1788013364 | 22.22° C | 54% | 1027.7 hPa | 0 mm | - | 130 W/m² | - |
| 1788013063 | 22.22° C | 54% | 1027.9 hPa | 0 mm | - | 102 W/m² | - |
| 1788012762 | 21.67° C | 54% | 1027.7 hPa | 0 mm | - | 94 W/m² | - |
| 1788012458 | 22.22° C | 56% | 1027.7 hPa | 0 mm | - | 88 W/m² | - |
| 1788012157 | 22.22° C | 58% | 1027.7 hPa | 0 mm | - | 84 W/m² | - |
| 1788011857 | 22.78° C | 57% | 1027.9 hPa | 0 mm | - | 79 W/m² | - |
| 1788011555 | 22.22° C | 56% | 1027.7 hPa | 0 mm | - | 78 W/m² | - |
| 1788011251 | 22.22° C | 56% | 1028 hPa | 0 mm | - | 68 W/m² | - |
* Rain latest hour (hover to see other rain measurements)
** Current wind speed in m/s (hover to see current wind gust speed)